RYR2246 LGRP-LCPH

Flight info

Callsign RYR2246
Flight time 0h 40m
Altitude 31000
Route LAKAD UM601 EVENO M601 DASNI M32 PHA
Aircraft B738/M-SDE2E3FGHIRWXY/LB1

Departure

Time 2026-04-26 09:12
Airport Rhodes International Airport "Diagoras" (LGRP)

Arrival

Time 2026-04-26 09:53
Airport Paphos International Airport (LCPH)
Time Latitude Longitude Altitude Speed Heading
2026-04-26 08:54 36.40337 28.09027 27 ft 0 kts 160°
2026-04-26 09:05 36.40339 28.09026 27 ft 1 kts 160°
2026-04-26 09:06 36.40356 28.09018 27 ft 3 kts 160°
2026-04-26 09:06 36.40373 28.09010 27 ft 3 kts 150°
2026-04-26 09:06 36.40387 28.08995 27 ft 3 kts 120°
2026-04-26 09:06 36.40394 28.08973 27 ft 3 kts 95°
2026-04-26 09:07 36.40394 28.08950 27 ft 2 kts 81°
2026-04-26 09:07 36.40392 28.08940 27 ft 1 kts 80°
2026-04-26 09:07 36.40392 28.08939 27 ft 0 kts 80°
2026-04-26 09:08 36.40397 28.08969 27 ft 9 kts 79°
2026-04-26 09:09 36.40423 28.09084 27 ft 17 kts 69°
2026-04-26 09:09 36.40465 28.09226 27 ft 17 kts 70°
2026-04-26 09:09 36.40517 28.09355 27 ft 17 kts 42°
2026-04-26 09:09 36.40599 28.09449 27 ft 16 kts 67°
2026-04-26 09:10 36.40634 28.09576 28 ft 15 kts 71°
2026-04-26 09:10 36.40669 28.09699 27 ft 15 kts 71°
2026-04-26 09:10 36.40706 28.09819 27 ft 16 kts 68°
2026-04-26 09:10 36.40755 28.09984 27 ft 25 kts 70°
2026-04-26 09:11 36.40822 28.10212 27 ft 30 kts 70°
2026-04-26 09:11 36.40877 28.10400 27 ft 14 kts 70°
2026-04-26 09:11 36.40960 28.10423 27 ft 14 kts 338°
2026-04-26 09:11 36.41023 28.10321 27 ft 16 kts 292°
2026-04-26 09:12 36.40973 28.10098 26 ft 55 kts 249°
2026-04-26 09:12 36.40758 28.09368 30 ft 122 kts 250°
2026-04-26 09:12 36.40412 28.08178 155 ft 161 kts 252°
2026-04-26 09:12 36.40034 28.06883 785 ft 165 kts 250°
2026-04-26 09:13 36.39618 28.05497 1329 ft 180 kts 250°
2026-04-26 09:13 36.39178 28.03908 1653 ft 207 kts 252°
2026-04-26 09:13 36.38671 28.02142 1916 ft 229 kts 248°
2026-04-26 09:13 36.38106 28.00237 2612 ft 240 kts 249°
2026-04-26 09:14 36.37518 27.98135 2968 ft 275 kts 250°
2026-04-26 09:14 36.36854 27.95747 3286 ft 308 kts 250°
2026-04-26 09:14 36.36165 27.93261 4314 ft 308 kts 250°
2026-04-26 09:14 36.35270 27.90917 5649 ft 295 kts 230°
2026-04-26 09:15 36.33772 27.89309 6957 ft 277 kts 203°
2026-04-26 09:15 36.32001 27.88683 8269 ft 255 kts 178°
2026-04-26 09:15 36.30330 27.88944 9566 ft 237 kts 158°
2026-04-26 09:15 36.28879 27.89875 10430 ft 237 kts 141°
2026-04-26 09:16 36.27696 27.91318 11162 ft 241 kts 126°
2026-04-26 09:16 36.26903 27.93195 11674 ft 259 kts 108°
2026-04-26 09:16 36.26392 27.95466 11907 ft 288 kts 105°
2026-04-26 09:16 36.25883 27.97994 12128 ft 316 kts 104°
2026-04-26 09:17 36.25344 28.00741 12464 ft 337 kts 104°
2026-04-26 09:17 36.24974 28.02628 12916 ft 342 kts 104°
2026-04-26 09:17 36.24210 28.06492 14018 ft 347 kts 104°
2026-04-26 09:17 36.23638 28.09361 14898 ft 346 kts 103°
2026-04-26 09:18 36.23055 28.12265 15696 ft 350 kts 103°
2026-04-26 09:18 36.22461 28.15212 16397 ft 355 kts 103°
2026-04-26 09:18 36.21858 28.18192 17125 ft 359 kts 103°
2026-04-26 09:18 36.21245 28.21210 17865 ft 363 kts 103°
2026-04-26 09:19 36.20624 28.24261 18534 ft 367 kts 103°
2026-04-26 09:19 36.19994 28.27347 19163 ft 370 kts 103°
2026-04-26 09:19 36.19360 28.30448 19789 ft 374 kts 103°
2026-04-26 09:19 36.18719 28.33577 20404 ft 377 kts 103°
2026-04-26 09:20 36.18070 28.36741 21014 ft 381 kts 103°
2026-04-26 09:20 36.17414 28.39933 21622 ft 384 kts 103°
2026-04-26 09:20 36.16752 28.43151 22205 ft 388 kts 103°
2026-04-26 09:20 36.16082 28.46403 22781 ft 391 kts 103°
2026-04-26 09:21 36.15414 28.49639 23336 ft 395 kts 103°
2026-04-26 09:21 36.14730 28.52952 23831 ft 398 kts 103°
2026-04-26 09:21 36.14041 28.56278 24280 ft 401 kts 103°
2026-04-26 09:21 36.13344 28.59641 24743 ft 404 kts 103°
2026-04-26 09:22 36.12643 28.63020 25180 ft 408 kts 103°
2026-04-26 09:22 36.11933 28.66431 25612 ft 411 kts 103°
2026-04-26 09:22 36.11219 28.69864 26027 ft 414 kts 103°
2026-04-26 09:22 36.10495 28.73331 26440 ft 417 kts 103°
2026-04-26 09:23 36.09768 28.76812 26844 ft 420 kts 103°
2026-04-26 09:23 36.09030 28.80339 27239 ft 424 kts 103°
2026-04-26 09:23 36.08288 28.83881 27640 ft 426 kts 104°
2026-04-26 09:23 36.07551 28.87389 28117 ft 427 kts 104°
2026-04-26 09:24 36.06805 28.90939 28691 ft 425 kts 104°
2026-04-26 09:24 36.06061 28.94468 29276 ft 424 kts 104°
2026-04-26 09:24 36.05318 28.97992 29789 ft 423 kts 104°
2026-04-26 09:24 36.04575 29.01512 30228 ft 424 kts 104°
2026-04-26 09:25 36.03830 29.05031 30637 ft 424 kts 104°
2026-04-26 09:25 36.03082 29.08564 30930 ft 426 kts 104°
2026-04-26 09:25 36.02324 29.12134 30941 ft 433 kts 104°
2026-04-26 09:26 36.01034 29.18202 30960 ft 445 kts 104°
2026-04-26 09:26 35.99184 29.26872 30950 ft 450 kts 104°
2026-04-26 09:27 35.97838 29.33160 30946 ft 451 kts 104°
2026-04-26 09:27 35.96241 29.40595 30948 ft 451 kts 104°
2026-04-26 09:28 35.94616 29.48136 30951 ft 452 kts 105°
2026-04-26 09:28 35.93006 29.55588 30951 ft 452 kts 105°
2026-04-26 09:29 35.91381 29.63080 30950 ft 452 kts 105°
2026-04-26 09:29 35.89754 29.70561 30948 ft 452 kts 105°
2026-04-26 09:30 35.88119 29.78049 30946 ft 452 kts 105°
2026-04-26 09:30 35.86483 29.85526 30949 ft 452 kts 105°
2026-04-26 09:31 35.84639 29.92876 30936 ft 451 kts 115°
2026-04-26 09:31 35.81832 29.99808 30939 ft 451 kts 118°
2026-04-26 09:32 35.78675 30.07119 30948 ft 452 kts 119°
2026-04-26 09:32 35.44873 30.86233 30953 ft 460 kts 120°
2026-04-26 09:33 35.41760 30.93017 30935 ft 452 kts 122°
2026-04-26 09:33 35.40243 30.96313 30924 ft 434 kts 122°
2026-04-26 09:33 35.38803 30.99494 30923 ft 419 kts 121°
2026-04-26 09:33 35.37430 31.02574 30930 ft 404 kts 121°
2026-04-26 09:34 35.36114 31.05551 30925 ft 390 kts 121°
2026-04-26 09:34 35.34841 31.08445 30594 ft 386 kts 121°
2026-04-26 09:34 35.33546 31.11383 29790 ft 395 kts 121°
2026-04-26 09:34 35.32221 31.14388 28777 ft 406 kts 121°
2026-04-26 09:35 35.30876 31.17441 28001 ft 409 kts 121°
2026-04-26 09:35 35.29538 31.20481 27226 ft 412 kts 121°
2026-04-26 09:35 35.28155 31.23621 26455 ft 414 kts 121°
2026-04-26 09:35 35.26786 31.26728 25710 ft 416 kts 121°
2026-04-26 09:36 35.25431 31.29800 24906 ft 416 kts 121°
2026-04-26 09:36 35.24038 31.32957 23693 ft 417 kts 121°
2026-04-26 09:36 35.22676 31.36038 22481 ft 415 kts 120°
2026-04-26 09:36 35.21310 31.39128 21389 ft 410 kts 120°
2026-04-26 09:37 35.19962 31.42174 20399 ft 406 kts 120°
2026-04-26 09:37 35.18614 31.45215 19646 ft 406 kts 120°
2026-04-26 09:37 35.17281 31.48219 19113 ft 398 kts 120°
2026-04-26 09:37 35.15979 31.51155 18326 ft 388 kts 120°
2026-04-26 09:38 35.14683 31.54070 17355 ft 393 kts 121°
2026-04-26 09:38 35.13382 31.56993 16795 ft 387 kts 121°
2026-04-26 09:38 35.12106 31.59863 16230 ft 382 kts 121°
2026-04-26 09:38 35.10857 31.62666 15610 ft 379 kts 122°
2026-04-26 09:39 35.09556 31.65459 14990 ft 376 kts 124°
2026-04-26 09:39 35.08192 31.68164 14409 ft 373 kts 126°
2026-04-26 09:39 35.06814 31.70826 13849 ft 369 kts 127°
2026-04-26 09:39 35.05442 31.73464 13240 ft 366 kts 127°
2026-04-26 09:40 35.04086 31.76082 12663 ft 362 kts 126°
2026-04-26 09:40 35.02749 31.78674 12130 ft 358 kts 126°
2026-04-26 09:40 35.01436 31.81230 11588 ft 354 kts 126°
2026-04-26 09:40 35.00140 31.83758 11221 ft 345 kts 126°
2026-04-26 09:41 34.98901 31.86183 11133 ft 330 kts 126°
2026-04-26 09:41 34.97713 31.88511 11038 ft 315 kts 126°
2026-04-26 09:41 34.96592 31.90704 10953 ft 303 kts 126°
2026-04-26 09:41 34.95501 31.92835 10870 ft 290 kts 126°
2026-04-26 09:42 34.94449 31.94888 10762 ft 280 kts 127°
2026-04-26 09:42 34.93424 31.96883 10509 ft 276 kts 126°
2026-04-26 09:42 34.92404 31.98866 10168 ft 276 kts 126°
2026-04-26 09:42 34.91384 32.00847 9800 ft 277 kts 126°
2026-04-26 09:43 34.90355 32.02843 9398 ft 277 kts 126°
2026-04-26 09:43 34.89332 32.04831 9045 ft 276 kts 125°
2026-04-26 09:43 34.88316 32.06804 8709 ft 274 kts 125°
2026-04-26 09:43 34.87304 32.08768 8384 ft 272 kts 124°
2026-04-26 09:44 34.86302 32.10715 8053 ft 270 kts 124°
2026-04-26 09:44 34.85318 32.12623 7736 ft 269 kts 124°
2026-04-26 09:44 34.84328 32.14545 7419 ft 267 kts 123°
2026-04-26 09:44 34.83342 32.16456 7100 ft 266 kts 123°
2026-04-26 09:45 34.82360 32.18359 6784 ft 264 kts 123°
2026-04-26 09:45 34.81384 32.20250 6472 ft 263 kts 122°
2026-04-26 09:45 34.80411 32.22134 6143 ft 262 kts 122°
2026-04-26 09:45 34.79443 32.24007 5813 ft 261 kts 122°
2026-04-26 09:46 34.78477 32.25877 5491 ft 260 kts 122°
2026-04-26 09:46 34.77517 32.27734 5180 ft 259 kts 122°
2026-04-26 09:46 34.76560 32.29584 4873 ft 258 kts 122°
2026-04-26 09:46 34.75610 32.31420 4562 ft 257 kts 122°
2026-04-26 09:47 34.74657 32.33261 4235 ft 256 kts 122°
2026-04-26 09:47 34.71716 32.38932 3342 ft 251 kts 121°
2026-04-26 09:47 34.70924 32.40771 3262 ft 240 kts 111°
2026-04-26 09:47 34.70364 32.42635 3192 ft 231 kts 109°
2026-04-26 09:48 34.69850 32.44441 3089 ft 222 kts 109°
2026-04-26 09:48 34.69351 32.46164 3019 ft 209 kts 110°
2026-04-26 09:48 34.68877 32.47769 2944 ft 195 kts 110°
2026-04-26 09:48 34.68429 32.49265 2846 ft 182 kts 110°
2026-04-26 09:49 34.68013 32.50645 2726 ft 171 kts 110°
2026-04-26 09:49 34.67609 32.51977 2520 ft 164 kts 110°
2026-04-26 09:49 34.67224 32.53246 2338 ft 157 kts 110°
2026-04-26 09:49 34.66848 32.54483 2163 ft 156 kts 109°
2026-04-26 09:50 34.66476 32.55732 1982 ft 158 kts 105°
2026-04-26 09:50 34.66553 32.57026 1752 ft 153 kts 66°
2026-04-26 09:50 34.67302 32.57894 1607 ft 149 kts 30°
2026-04-26 09:50 34.68301 32.57838 1396 ft 151 kts 329°
2026-04-26 09:51 34.69062 32.56873 1270 ft 164 kts 310°
2026-04-26 09:51 34.69624 32.55691 1050 ft 158 kts 298°
2026-04-26 09:51 34.70008 32.54485 855 ft 151 kts 291°
2026-04-26 09:51 34.70344 32.53284 706 ft 151 kts 291°
2026-04-26 09:52 34.70710 32.52082 488 ft 152 kts 295°
2026-04-26 09:52 34.71464 32.49635 96 ft 154 kts 294°
2026-04-26 09:52 34.71799 32.48548 45 ft 86 kts 290°
2026-04-26 09:53 34.71885 32.48318 44 ft 9 kts 275°
2026-04-26 09:53 34.71878 32.48306 45 ft 0 kts 198°